STARLINK-5749, 55569

Orbit data source: Space-Track

STARLINK-5749, 55569 is a payload satellite owned by SpaceX/Seattle (US) in LEO that was launched on Sun, 12 Feb 2023 UTC via an FALCON 9 launch vehicle from the Air Force Eastern Test Range (AFETR). Payload-class satellites include a variety of spacecraft equipped with specific instruments for various scientific and technological missions. These include communications satellites like Starlink; space stations such as the ISS; scientific satellites like the Hubble; Earth observation satellites from companies like Planet Labs, Umbra, and HawkEye 360; GPS; miniature CubeSats for education and research; and military/defense satellites.

Loading next visibility...
Identifier
55569, 2023-020A
Orbit
LEO
Country
Flag of USUS
Related business
Manufacturer
SpaceX/Seattle
Mission
Operational Commercial Communications
Bus & Motor
STARLINK, Unknown motor
Mass
305 kg wet, ~290 kg dry
Launch date (UTC)
2023-02-12 (3 years ago)
Launch vehicle
FALCON 9
Launch site
Air Force Eastern Test Range (AFETR)
Object type
Payload
Rocket body
Debris
Shape & HBR
Box + 1 Pan, 10.1 m
Radar Cross Section
13.562 m², Large (>1 m²)

Expand to show TLE details & history
Last TLE update: 23 hours ago

TLE from 23 hours ago
0 STARLINK-5749
1 55569U 23020A   26061.63357873  .00000961  00000-0  86180-4 0  9997
2 55569  43.0051  43.3473 0001263 271.5606  88.5091 15.02535392168920
Epoch: 2026-03-02T15:12Z
TLE epoch observation values (Epoch: 2026-03-02T15:12:21.202Z)
Latitude
-0.00006°
Longitude
14.83471°
Altitude
558.837 km
Speed
7.584 km/s
True Right ascension
02h 53m 23s
True Declination
0° 00' 00"
Sunlit
Object was in daylight at epoch
Visualization orbit readout
Latitude
Unknown
Longitude
Unknown
Altitude
Unknown
Speed
Unknown
Apparent Right ascension
Unknown
Apparent Declination
Unknown
Sunlit
N/A
Visualization observer readout
Local Sidereal Time
18:21:06
Azimuth
Unknown
Elevation
Unknown
Doppler factor
Unknown
Orbital elements
Apogee altitude
561.881 km
Perigee altitude
560.128 km
Semi-major axis
6,939.141 km
Eccentricity
0.00013
Inclination
43.0051°
RAAN
43.3473°
Arg. of periapsis
271.5606°
True anomaly
88.52357°
Mean anomaly
88.5091°
Eccentric anomaly
88.51633°
Mean motion
3.75478 °/min
Orbital period
95.88 mins
BSTAR
0.00008618
Loading maneuver chart data...
Computing Atmospheric mass density...
Loading historical data...
Loading historical data...
Loading historical data...
Loading historical data...
Loading historical data...
Loading historical data...
Loading historical data...

Documentation

Showing up to 5 results
|